Regional Weather Roundup
Issued by NWS

Home | Current Version | Previous Version | Text Only | Print | Product List | Glossary On
Versions: 1 2 3 4 5 6 7 8 9 10 11 12 13 14 15 16 17 18 19 20 21 22 23 24 25 26 27 28 29 30 31 32 33 34 35 36 37 38 39 40 41 42 43 44 45 46 47 48 49 50
000
ASUS44 KFWD 302305
RWRTX
NORTH TEXAS HOURLY WEATHER ROUNDUP
NATIONAL WEATHER SERVICE FORT WORTH TX
ISSUED BY NATIONAL WEATHER SERVICE TULSA OK
600 PM CDT TUE SEP 30 2014

NOTE: "FAIR" INDICATES FEW OR NO CLOUDS BELOW 12,000 FEET WITH NO
SIGNIFICANT WEATHER AND/OR OBSTRUCTIONS TO VISIBILITY.

TXZ118-119-010000-
DALLAS/FORT WORTH METROPLEX

CITY           SKY/WX    TMP DP  RH WIND       PRES   REMARKS
DFW AIRPORT    MOSUNNY   91  62  37 SE13      29.74F HX  91
DALLAS LOVE    MOSUNNY   89  64  43 S13       29.75F HX  90
FTW MEACHAM    MOSUNNY   91  60  35 S12       29.74F HX  90
DAL-EXECUTIVE  MOSUNNY   91  63  39 SE12G20   29.75F HX  92
FTW-ALLIANCE   MOSUNNY   88  60  38 S12       29.74S
FTW-NAS-JRB    MOSUNNY   94  55  26 S13       29.78F HX  92
FTW-SPINKS     PTSUNNY   90  59  35 SE8       29.77S
ARLINGTON      PTSUNNY   91  62  37 SE14      29.75F HX  91
GRAND PRAIRIE  SUNNY     90  61  37 MISG      29.76F
ADDISON        MOSUNNY   88  61  40 SE10G16   29.75F
MESQUITE       CLEAR     88  61  40 SE10      29.76F
$$

TXZ091>094-102>105-117-120-121-131>134-010000-
NORTH CENTRAL TEXAS

CITY           SKY/WX    TMP DP  RH WIND       PRES   REMARKS
SHRMAN/DENISON CLEAR     84  65  51 E7        29.77F
GAINESVILLE    SUNNY     87  62  44 SE14      29.78S
BOWIE          CLEAR     88  55  32 SE9G16    29.75F
BRIDGEPORT     CLEAR     90  50  25 S7        29.76F
DECATUR        CLEAR     88  54  30 SE13      29.76F
DENTON         SUNNY     89  61  38 SE15      29.74F
MCKINNEY       SUNNY     87  63  44 S13       29.76S
GREENVILLE     SUNNY     88  61  40 S10       29.77F
TERRELL        MOSUNNY   91  65  41 S14       29.77S HX  93
WAXAHACHIE     PTCLDY    88  65  46 SE8       29.77S
CLEBURNE       CLEAR     90  59  35 S10       29.78S
GRANBURY       CLEAR     92  54  27 SE7       29.76F
$$

TXZ083>090-098>101-113>116-127>130-139>142-154-155-010000-
WESTERN NORTH TEXAS

CITY           SKY/WX    TMP DP  RH WIND       PRES   REMARKS
WICHITA FALLS  NOT AVBL
WF-KICKAPOO    CLEAR     90  51  26 S17G23    29.73F
ABILENE        NOT AVBL
ABILENE-DYESS  PTSUNNY   89  59  35 S17       29.74F
BRECKENRIDGE   CLEAR     91  53  27 S13G20    29.74F HAZE
GRAHAM         CLEAR     91  53  27 SE10G16   29.72F
MINERAL WELLS  SUNNY     90  52  27 S12       29.74F
STEPHENVILLE   SUNNY     88  54  30 S6        29.81S
COMANCHE       CLEAR     89  53  29 S7G18     29.78S
BROWNWOOD      SUNNY     86  57  37 S8        29.77F
COLEMAN        MOSUNNY   91  55  29 S12       29.77F
BRADY          CLEAR     88  59  37 E10       29.78F HAZE
$$

TXZ143>147-156>162-174-175-010000-
CENTRAL TEXAS

CITY           SKY/WX    TMP DP  RH WIND       PRES   REMARKS
WACO           MOSUNNY   89  63  41 S12       29.76S HX  90
WACO-TSTC      PTCLDY    90  63  40 S12       29.76S HX  90
WACO-MCGREGOR  MOSUNNY   90  63  40 SE14      29.77S HX  90
HILLSBORO      CLEAR     90  60  36 S10       29.76S
CORSICANA      MOSUNNY   89  65  44 S13       29.77F HX  91
HEARNE         PTCLDY    88  69  52 SE5       29.76F HX  92
TEMPLE         SUNNY     88  61  40 S12       29.77S
KILLEEN GRAY   MOSUNNY   90  61  37 SE10      29.77F
KILLEEN-SKYLRK SUNNY     90  61  37 S8        29.78S
GATESVILLE     CLEAR     90  61  37 S10       29.79S
HAMILTON       CLEAR     89  54  29 S8G17     29.79F
LAMPASAS       PTCLDY    86  63  46 SE10      29.78S
$$

TXZ095>097-106>112-122>126-135>138-148>153-164>167-010000-
EAST TEXAS

CITY           SKY/WX    TMP DP  RH WIND       PRES   REMARKS
PARIS          PTSUNNY   82  64  54 NE7       29.80S
MOUNT PLEASANT PTCLDY    88  64  45 E6        29.80S
GILMER         PTCLDY    88  66  48 SE3       29.80S HX  90
MINEOLA        PTCLDY    88  66  48 SE6       29.79S HX  90
TYLER          PTSUNNY   88  67  49 SE9       29.79S HX  91
LONGVIEW       MOSUNNY   87  66  49 SE8       29.78F
PALESTINE      MOCLDY    86  70  58 SE7       29.80S HX  91
HENDERSON      MOCLDY    86  69  57 CALM      29.80S
NACOGDOCHES    SUNNY     84  68  58 SE8       29.79F
LUFKIN         SUNNY     88  72  58 SE10      29.79S HX  94
$$

SUPPLEMENTAL OBSERVATIONS (CENTRAL)

CITY           SKY/WX    TMP DP  RH WIND       PRES   REMARKS
$$

SUPPLEMENTAL OBSERVATIONS (WEST)

CITY           SKY/WX    TMP DP  RH WIND       PRES   REMARKS
$$

SUPPLEMENTAL OBSERVATIONS (EAST)

CITY           SKY/WX    TMP DP  RH WIND       PRES   REMARKS
$$

SUPPLEMENTAL OBSERVATIONS ARE A COLLECTION OF AUTOMATED INSTRUMENTS
THAT ARE MAINTAINED BY A VARIETY OF FEDERAL AND STATE AGENCIES.
CERTAIN ELEMENTS...SUCH AS HUMIDITY VALUES AND SUSTAINED WIND
SPEEDS...MAY BE ESTIMATED.




USA.gov is the U.S. government's official web portal to all federal, state and local government web resources and services.